Tangier, Morocco

11:38 AM WET on February 28, 2017 (GMT +0000)
Ibn Batouta

Weather History for GMTT - November, 2011

Change the Weather History Date:

Saturday, November 12, 2011

  Actual Average Record
Temperature  
Mean Temperature 67 °F -  
Max Temperature 73 °F 63 °F 76 °F (2015)
Min Temperature 61 °F 49 °F 32 °F (2006)
Cooling Degree Days 2    
Growing Degree Days 17 (Base 50)    
Moisture  
Dew Point 56 °F    
Average Humidity 66    
Maximum Humidity 82    
Minimum Humidity 46    
Precipitation  
Precipitation 0.00 in 0.17 in - ()
Sea Level Pressure  
Sea Level Pressure 29.99 in    
Wind  
Wind Speed 15 mph ()    
Max Wind Speed 21 mph    
Max Gust Speed -    
Visibility 5.5 miles    
Events      
Averages and records for this station are not official NWS values.
T = Trace of Precipitation, MM = Missing Value Source: Averaged Metar Reports

Daily Weather History Graph

Daily Weather History Graph

Search for Another Location

Airport or City:

Trip Planner

Search our weather history database for the weather conditions in past years. The results will help you decide how hot, cold, wet, or windy it might be!

Date:

Astronomy

Nov. 12, 2011 Rise Set
Actual Time 6:56 AM WET 5:18 PM WET
Civil Twilight 6:29 AM WET 5:45 PM WET
Nautical Twilight 5:58 AM WET 6:16 PM WET
Astronomical Twilight 5:28 AM WET 6:46 PM WET
Moon 6:27 PM WET (11/12) 8:22 AM WET (11/12)
Length of Visible Light 11h 16m
Length of Day
10h 22m
Full, 98% of the Moon is Illuminated
Nov 12
Full
Nov 18
Last Quarter
Nov 25
New
Dec 2
First Quarter
Dec 10
Full

Hourly Weather History & Observations

Time (WET) Temp. Dew Point Humidity Pressure Visibility Wind Dir Wind Speed Gust Speed Precip Events Conditions
12:00 AM 62 °F 56 °F 77% 30.02 in 5 mi East 12.7 mph - -   Scattered Clouds
12:00 AM 62.6 °F 57.2 °F 82% 30.01 in 5.0 mi East 12.7 mph - N/A   Mostly Cloudy
3:00 AM 61 °F 55 °F 75% 30.02 in - East 11.5 mph - -  
4:30 AM 62.6 °F 55.4 °F 77% 29.98 in 5.0 mi East 13.8 mph - N/A   Mostly Cloudy
5:00 AM 62.6 °F 55.4 °F 77% 29.98 in 5.0 mi East 12.7 mph - N/A   Mostly Cloudy
5:30 AM 62.6 °F 55.4 °F 77% 29.98 in 5.0 mi East 13.8 mph - N/A   Mostly Cloudy
6:00 AM 63 °F 56 °F 70% 29.99 in 5 mi East 18.4 mph - -   Partly Cloudy
6:00 AM 62.6 °F 55.4 °F 77% 29.98 in 5.0 mi East 18.4 mph - N/A   Mostly Cloudy
6:30 AM 62.6 °F 55.4 °F 77% 29.98 in 5.0 mi East 17.3 mph - N/A   Mostly Cloudy
7:00 AM 62.6 °F 55.4 °F 77% 29.98 in 6.2 mi East 17.3 mph - N/A   Scattered Clouds
7:30 AM 64.4 °F 55.4 °F 73% 29.98 in 6.2 mi East 19.6 mph - N/A   Scattered Clouds
8:00 AM 64.4 °F 55.4 °F 73% 29.98 in 6.2 mi East 19.6 mph - N/A   Scattered Clouds
8:30 AM 66.2 °F 53.6 °F 64% 30.01 in 5.0 mi East 20.7 mph - N/A   Mostly Cloudy
9:00 AM 67 °F 55 °F 55% 30.02 in 5 mi East 20.7 mph - -   Mostly Cloudy
9:00 AM 66.2 °F 55.4 °F 68% 30.01 in 5.0 mi East 20.7 mph - N/A   Mostly Cloudy
9:30 AM 68.0 °F 55.4 °F 64% 30.01 in 5.0 mi East 17.3 mph - N/A   Mostly Cloudy
10:00 AM 69.8 °F 55.4 °F 60% 30.01 in 5.0 mi East 19.6 mph - N/A   Mostly Cloudy
10:30 AM 69.8 °F 53.6 °F 56% 30.01 in 5.0 mi East 17.3 mph - N/A   Mostly Cloudy
11:00 AM 73.4 °F 55.4 °F 53% 30.01 in 5.0 mi East 17.3 mph - N/A   Mostly Cloudy
11:30 AM 73.4 °F 55.4 °F 53% 30.01 in 5.0 mi East 17.3 mph - N/A   Mostly Cloudy
12:00 PM 72 °F 56 °F 47% 29.99 in 5 mi East 20.7 mph - -   Scattered Clouds
12:00 PM 71.6 °F 55.4 °F 57% 29.98 in 5.0 mi East 20.7 mph - N/A   Mostly Cloudy
12:30 PM 71.6 °F 57.2 °F 60% 29.98 in 5.0 mi East 19.6 mph - N/A   Mostly Cloudy
1:00 PM 73.4 °F 57.2 °F 57% 29.98 in 5.0 mi East 17.3 mph - N/A   Mostly Cloudy
1:30 PM 71.6 °F 55.4 °F 57% 29.95 in 5.0 mi East 19.6 mph - N/A   Mostly Cloudy
2:00 PM 71.6 °F 55.4 °F 57% 29.95 in 5.0 mi East 20.7 mph - N/A   Mostly Cloudy
2:30 PM 71.6 °F 55.4 °F 57% 29.95 in 5.0 mi East 19.6 mph - N/A   Mostly Cloudy
3:00 PM 71 °F 55 °F 46% 29.96 in 5 mi East 18.4 mph - -   Scattered Clouds
3:00 PM 71.6 °F 55.4 °F 57% 29.95 in 5.0 mi East 19.6 mph - N/A   Mostly Cloudy
3:30 PM 73.4 °F 55.4 °F 53% 29.95 in 6.2 mi East 19.6 mph - N/A   Mostly Cloudy
4:00 PM 71.6 °F 55.4 °F 57% 29.95 in 6.2 mi East 19.6 mph - N/A   Mostly Cloudy
4:30 PM 69.8 °F 55.4 °F 60% 29.98 in 6.2 mi East 20.7 mph - N/A   Mostly Cloudy
5:00 PM 68.0 °F 55.4 °F 64% 29.98 in 6.2 mi East 18.4 mph - N/A   Mostly Cloudy
5:30 PM 68.0 °F 55.4 °F 64% 29.98 in 6.2 mi East 18.4 mph - N/A   Mostly Cloudy
6:00 PM 67 °F 55 °F 56% 29.99 in 6 mi East 19.6 mph - -   Scattered Clouds
6:00 PM 66.2 °F 55.4 °F 68% 29.98 in 6.2 mi East 19.6 mph - N/A   Mostly Cloudy
6:30 PM 66.2 °F 55.4 °F 68% 29.98 in 6.2 mi East 18.4 mph - N/A   Mostly Cloudy
7:00 PM 66.2 °F 55.4 °F 68% 29.98 in 6.2 mi East 18.4 mph - N/A   Mostly Cloudy
7:30 PM 66.2 °F 55.4 °F 68% 30.01 in 6.2 mi East 15.0 mph - N/A   Mostly Cloudy
8:00 PM 66.2 °F 55.4 °F 68% 30.01 in 6.2 mi East 13.8 mph - N/A   Mostly Cloudy
8:30 PM 66.2 °F 55.4 °F 68% 30.01 in 6.2 mi East 12.7 mph - N/A   Mostly Cloudy
9:00 PM 65 °F 56 °F 64% 30.02 in 6 mi East 11.5 mph - -   Scattered Clouds
9:00 PM 64.4 °F 55.4 °F 73% 30.01 in 6.2 mi East 11.5 mph - N/A   Mostly Cloudy
9:30 PM 64.4 °F 55.4 °F 73% 30.01 in 6.2 mi East 11.5 mph - N/A   Mostly Cloudy
10:00 PM 64.4 °F 55.4 °F 73% 30.01 in 5.0 mi East 13.8 mph - N/A   Mostly Cloudy
10:30 PM 66.2 °F 57.2 °F 73% 30.01 in 5.0 mi East 12.7 mph - N/A   Mostly Cloudy
11:00 PM 64.4 °F 57.2 °F 77% 30.01 in 5.0 mi East 11.5 mph - N/A   Mostly Cloudy
11:30 PM 64.4 °F 57.2 °F 77% 30.01 in 5.0 mi East 10.4 mph - N/A   Mostly Cloudy